Weather in Zelennik

Russia / Arkhangel'skaya Oblast'     62°20′42″N   44°40′50″E
temp.,
°C
wind,
m/s
gust,
m/s
humid.,
%
clouds,
%
prec.,
mm/h
press.,
hPa
HPBL,
m
31 july, sat
sat3100:00+14sse239855 1.1 100062
03:00+13sse229826 1.2 99927
06:00+15sse2597100 0.1 998159
09:00+15s1298100 1.6 998166
12:00+15se249838 1.8 997189
15:00+18s348072 2.1 996684
18:00+15w2497100 10.7 996147
21:00+13wsw249888 16.4 997117
1 august, sun
sun100:00+11sw2699100 0.0 998165
03:00+12wsw2798100 0.0 999313
06:00+13w379765 0.0 1001366
09:00+17w357615 0.0 1002617
12:00+22wsw455229 0.0 10031602
15:00+22sw4654100 0.1 10041401
18:00+20sw386593 0.1 1004520
21:00+17s2575100 0.1 100499
2 august, mon
mon200:00+14s2798100 0.9 1003186
03:00+14s259932 2.9 1003180
06:00+15sw3897100 0.0 1004423
09:00+18sw358257 0.0 1005581
12:00+21sw48676 1.1 10051245
15:00+24w584694 1.1 10042053
18:00+22wsw3656100 0.0 1005448
21:00+16ne118234 0.0 100511
3 august, tue
tue300:00+15ese2387100 0.0 100559
03:00+14ese3988100 0.0 1003166
06:00+16se4128699 0.2 1001367
09:00+20sse5128993 1.1 999677
12:00+26s6957100 0.0 9981613
15:00+20s61290100 3.1 999835
18:00+20sw61275100 0.7 10001268
21:00+16wsw3108430 0.7 1001577
4 august, wed
wed400:00+13sw22954 0.0 100430
03:00+12ssw22975 0.0 100536
06:00+15ssw258541 0.0 1006193
09:00+18sw3574100 0.1 1006569
12:00+21ssw246871 1.1 10071020
15:00+19sw2370100 1.6 100890
18:00+18wnw367233 0.0 1009536
21:00+13wnw27973 0.6 1011176